Погода в Андреевке

Россия / Оренбургская область     51°56′10″N   56°38′23″E
темп.,
°C
ветер,
м/с
пор.,
м/с
влажн.,
%
обл.,
%
осадки,
мм/ч
давл.,
гПа
погр.,
м
18 апреля, вс
вс1823:00+11в33685 0.0 101838
02:00+10всв22675 0.0 101712
05:00+8св22700 0.0 101711
08:00+10св11670 0.0 101630
11:00+15ссз22490 0.0 1015459
14:00+18ссз44401 0.0 10151292
17:00+17ссз55370 0.0 10151288
20:00+13ссз225719 0.0 101521
19 апреля, пн
пн1923:00+11в8166586 0.0 1016655
02:00+6в111765100 0.0 1019650
05:00+3в11196146 0.0 1021597
08:00+2в111861100 0.0 1023665
11:000в101764100 0.1 1025668
14:00+5в9114487 0.0 10251128
17:00+6в9104173 0.0 10251332
20:00+3в71242100 0.0 1027976
20 апреля, вт
вт2023:00+1в81443100 0.0 1029865
02:00−1в7144722 0.0 1030789
05:00−2в713470 0.0 1031788
08:00−1в813400 0.0 1032861
11:00+3в810290 0.0 10331170
14:00+6в78280 0.0 10321400
17:00+6в67300 0.0 10311357
20:00+3в35460 0.0 103279
21 апреля, ср
ср2123:000в22500 0.0 103318
02:00−1в22510 0.0 103318
05:00−1в11500 0.0 103310
08:00+2юв24400 0.0 1034277
11:00+7юв45313 0.0 1033901
14:00+10юв553025 0.0 10311250
17:00+11ююв5633100 0.0 10311359
20:00+6ююв355286 0.0 1033108
22 апреля, чт
чт2223:00+4вюв3851100 0.0 1033144
02:00+2вюв225399 0.0 103422
05:00+2вюв2257100 0.0 103517
08:00+4юв2856100 0.0 1036270
11:00+8ююв6846100 0.0 1035647
14:00+10ююв6842100 0.0 10351103
17:00+12ююв684380 0.0 10331362
20:00+9вюв5105895 0.0 1033250